| time (UTC) | temp F | wind direction | speed knots | gust knots | rain 1hr in | rain 24hr in | rain mn in | humidity % | barometer mb |
| 20260504081558 | 52 | 0 | 0.0 | 0.0 | 0.00 | 0.00 | 0.00 | 41 | 1017.5 |
| 20260504044557 | 54 | 142 | 1.7 | 4.3 | 0.00 | 0.00 | 0.00 | 38 | 1018.2 |
| 20260504043100 | 54 | 14 | 0.9 | 4.3 | 0.00 | 0.00 | 0.00 | 38 | 1018.2 |
| 20260504041557 | 54 | 141 | 1.7 | 3.5 | 0.00 | 0.00 | 0.00 | 37 | 1018.1 |
| 20260504040131 | 55 | 98 | 0.0 | 2.6 | 0.00 | 0.00 | 0.00 | 33 | 1018.1 |
| 20260504034602 | 55 | 103 | 0.0 | 2.6 | 0.00 | 0.00 | 0.00 | 33 | 1018.1 |
| 20260504033059 | 54 | 99 | 0.9 | 2.6 | 0.00 | 0.00 | 0.00 | 33 | 1018.2 |
| 20260504031614 | 54 | 155 | 0.0 | 2.6 | 0.00 | 0.00 | 0.00 | 34 | 1018.2 |
| 20260504030057 | 53 | 11 | 0.0 | 2.6 | 0.00 | 0.00 | 0.00 | 35 | 1018.1 |
| 20260504024605 | 52 | 0 | 0.0 | 0.9 | 0.00 | 0.00 | 0.00 | 37 | 1018.0 |
| 20260504023100 | 52 | 0 | 0.0 | 0.9 | 0.00 | 0.00 | 0.00 | 38 | 1017.9 |
| 20260504021558 | 52 | 30 | 0.0 | 0.9 | 0.00 | 0.00 | 0.00 | 39 | 1017.7 |
| 20260504020110 | 52 | 0 | 0.0 | 0.0 | 0.00 | 0.00 | 0.00 | 39 | 1017.7 |
| 20260504014603 | 51 | 0 | 0.0 | 0.9 | 0.00 | 0.00 | 0.00 | 40 | 1017.4 |
| 20260504013058 | 51 | 30 | 0.0 | 0.9 | 0.00 | 0.00 | 0.00 | 40 | 1017.4 |
| 20260504011556 | 51 | 30 | 0.0 | 0.9 | 0.00 | 0.00 | 0.00 | 41 | 1017.3 |
| 20260504010057 | 51 | 30 | 0.0 | 0.9 | 0.00 | 0.00 | 0.00 | 42 | 1017.1 |
| 20260504004555 | 50 | 30 | 0.0 | 0.9 | 0.00 | 0.00 | 0.00 | 43 | 1017.2 |
| 20260504003057 | 51 | 0 | 0.0 | 0.9 | 0.00 | 0.00 | 0.00 | 44 | 1017.1 |
| 20260504001556 | 51 | 0 | 0.0 | 0.0 | 0.00 | 0.00 | 0.00 | 43 | 1017.0 |
| 20260504000101 | 52 | 0 | 0.0 | 0.0 | 0.00 | 0.00 | 0.00 | 44 | 1017.0 |
| 20260503234624 | 53 | 0 | 0.0 | 0.0 | 0.00 | 0.00 | 0.00 | 44 | 1016.9 |
| 20260503233055 | 54 | 0 | 0.0 | 0.0 | 0.00 | 0.00 | 0.00 | 43 | 1016.9 |
| 20260503231557 | 55 | 0 | 0.0 | 1.7 | 0.00 | 0.00 | 0.00 | 40 | 1016.7 |
| 20260503230058 | 56 | 65 | 0.0 | 1.7 | 0.00 | 0.00 | 0.00 | 38 | 1016.6 |
| 20260503224557 | 57 | 84 | 0.0 | 1.7 | 0.00 | 0.00 | 0.00 | 32 | 1016.6 |
| 20260503223059 | 58 | 101 | 0.0 | 1.7 | 0.00 | 0.00 | 0.00 | 34 | 1016.7 |
| 20260503221610 | 59 | 38 | 1.7 | 4.3 | 0.00 | 0.00 | 0.00 | 31 | 1016.7 |
| 20260503220056 | 60 | 51 | 0.0 | 2.6 | 0.00 | 0.00 | 0.00 | 30 | 1016.7 |
| 20260503214601 | 60 | 271 | 0.9 | 5.2 | 0.00 | 0.00 | 0.00 | 31 | 1016.7 |
| 20260503213055 | 60 | 93 | 0.9 | 4.3 | 0.00 | 0.00 | 0.00 | 30 | 1016.8 |
| 20260503211559 | 60 | 65 | 0.9 | 6.1 | 0.00 | 0.00 | 0.00 | 30 | 1017.0 |
| 20260503210100 | 60 | 75 | 0.9 | 4.3 | 0.00 | 0.00 | 0.00 | 30 | 1016.8 |
| 20260503204606 | 60 | 71 | 0.9 | 7.8 | 0.00 | 0.00 | 0.00 | 30 | 1016.8 |
| 20260503203102 | 60 | 65 | 0.9 | 6.1 | 0.00 | 0.00 | 0.00 | 30 | 1017.0 |
| 20260503201558 | 60 | 237 | 0.9 | 4.3 | 0.00 | 0.00 | 0.00 | 31 | 1016.9 |
| 20260503200058 | 59 | 99 | 2.6 | 7.0 | 0.00 | 0.00 | 0.00 | 31 | 1017.1 |
| 20260503194600 | 60 | 142 | 0.9 | 8.7 | 0.00 | 0.00 | 0.00 | 31 | 1017.5 |
| 20260503193059 | 59 | 72 | 2.6 | 8.7 | 0.00 | 0.00 | 0.00 | 30 | 1017.6 |
| 20260503191556 | 60 | 141 | 1.7 | 7.8 | 0.00 | 0.00 | 0.00 | 32 | 1017.9 |
| 20260503190056 | 60 | 58 | 1.7 | 4.3 | 0.00 | 0.00 | 0.00 | 32 | 1018.0 |
| 20260503184557 | 59 | 58 | 0.9 | 5.2 | 0.00 | 0.00 | 0.00 | 34 | 1018.1 |
| 20260503183057 | 59 | 126 | 1.7 | 5.2 | 0.00 | 0.00 | 0.00 | 35 | 1018.1 |
| 20260503181558 | 58 | 104 | 2.6 | 12.2 | 0.00 | 0.00 | 0.00 | 32 | 1018.1 |
| 20260503180105 | 59 | 122 | 1.7 | 7.8 | 0.00 | 0.00 | 0.00 | 35 | 1018.4 |
| 20260503174600 | 58 | 131 | 1.7 | 5.2 | 0.00 | 0.00 | 0.00 | 35 | 1018.4 |
| 20260503173109 | 58 | 58 | 1.7 | 6.1 | 0.00 | 0.00 | 0.00 | 36 | 1018.6 |
| 20260503171555 | 56 | 71 | 1.7 | 7.0 | 0.00 | 0.00 | 0.00 | 37 | 1018.6 |